Hoquiam, WA

7:05 AM PDT on August 18, 2017 (GMT -0700)
Bowerman

Weather History for KHQM - March, 2013

Change the Weather History Date:

Sunday, March 24, 2013

  Actual Average Record
Temperature  
Mean Temperature 46 °F 47 °F  
Max Temperature 54 °F 53 °F 67 °F (1982)
Min Temperature 38 °F 40 °F 30 °F (1965)
Degree Days  
Heating Degree Days 19 18  
Month to date heating degree days 498 461  
Cooling Degree Days 0 0  
Month to date cooling degree days 0 0  
Year to date cooling degree days 0 0  
Moisture  
Dew Point 35 °F    
Average Humidity 69    
Maximum Humidity 92    
Minimum Humidity 46    
Precipitation  
Precipitation 0.00 in 0.22 in 1.91 in (2007)
Month to date precipitation 5.62 5.46  
Year to date precipitation 18.62 23.00  
Sea Level Pressure  
Sea Level Pressure 30.21 in    
Wind  
Wind Speed 7 mph (ENE)    
Max Wind Speed 14 mph    
Max Gust Speed 18 mph    
Visibility 10 miles    
Events      
T = Trace of Precipitation, MM = Missing Value Source: NWS Daily Summary

Daily Weather History Graph

Daily Weather History Graph

Search for Another Location

Airport or City:

Trip Planner

Search our weather history database for the weather conditions in past years. The results will help you decide how hot, cold, wet, or windy it might be!

Date:

Astronomy

Mar. 24, 2013 Rise Set
Actual Time 7:10 AM PDT 7:34 PM PDT
Civil Twilight 6:39 AM PDT 8:05 PM PDT
Nautical Twilight 6:03 AM PDT 8:41 PM PDT
Astronomical Twilight 5:26 AM PDT 9:18 PM PDT
Moon 5:01 PM PDT (3/24) 5:32 AM PDT (3/24)
Length of Visible Light 13h 25m
Length of Day
12h 24m
Waxing Gibbous, 92% of the Moon is Illuminated
Mar 24
Waxing Gibbous
Mar 27
Full
Apr 2
Last Quarter
Apr 10
New
Apr 18
First Quarter

Hourly Weather History & Observations

Time (PDT) Temp. Windchill Dew Point Humidity Pressure Visibility Wind Dir Wind Speed Gust Speed Precip Events Conditions
12:53 AM 39.9 °F - 36.0 °F 86% 30.30 in 10.0 mi Calm Calm - N/A   Overcast
1:53 AM 39.0 °F - 36.0 °F 89% 30.30 in 10.0 mi Calm Calm - N/A   Overcast
2:53 AM 39.9 °F 36.7 °F 36.0 °F 86% 30.29 in 10.0 mi NE 4.6 mph - N/A   Overcast
3:53 AM 39.0 °F 34.0 °F 36.0 °F 89% 30.27 in 10.0 mi ENE 6.9 mph - N/A   Mostly Cloudy
4:53 AM 37.9 °F 33.5 °F 36.0 °F 93% 30.27 in 10.0 mi East 5.8 mph - N/A   Overcast
5:53 AM 37.9 °F 32.7 °F 36.0 °F 93% 30.27 in 10.0 mi East 6.9 mph - N/A   Overcast
6:53 AM 37.9 °F 32.1 °F 36.0 °F 93% 30.27 in 10.0 mi East 8.1 mph - N/A   Overcast
7:53 AM 37.9 °F 35.5 °F 35.1 °F 89% 30.25 in 10.0 mi East 3.5 mph - N/A   Overcast
8:53 AM 39.0 °F 34.0 °F 35.1 °F 86% 30.25 in 10.0 mi East 6.9 mph - N/A   Mostly Cloudy
9:53 AM 42.1 °F 36.6 °F 36.0 °F 79% 30.25 in 10.0 mi East 9.2 mph - N/A   Overcast
10:53 AM 43.0 °F 37.2 °F 36.0 °F 76% 30.25 in 10.0 mi East 10.4 mph - N/A   Overcast
11:53 AM 45.0 °F 39.7 °F 35.1 °F 68% 30.24 in 10.0 mi East 10.4 mph - N/A   Overcast
12:53 PM 48.0 °F - 35.1 °F 61% 30.22 in 10.0 mi East 11.5 mph - N/A   Overcast
1:53 PM 50.0 °F - 34.0 °F 54% 30.21 in 10.0 mi ENE 10.4 mph - N/A   Overcast
2:53 PM 52.0 °F - 34.0 °F 50% 30.19 in 10.0 mi ENE 10.4 mph - N/A   Overcast
3:53 PM 53.1 °F - 33.1 °F 47% 30.17 in 10.0 mi ENE 9.2 mph - N/A   Overcast
4:53 PM 53.1 °F - 33.1 °F 47% 30.15 in 10.0 mi ENE 10.4 mph - N/A   Overcast
5:53 PM 54.0 °F - 34.0 °F 47% 30.13 in 10.0 mi ENE 9.2 mph - N/A   Overcast
6:53 PM 52.0 °F - 32.0 °F 47% 30.12 in 10.0 mi NE 9.2 mph - N/A   Clear
7:53 PM 50.0 °F - 32.0 °F 50% 30.12 in 10.0 mi Calm Calm - N/A   Overcast
8:53 PM 48.9 °F - 32.0 °F 52% 30.12 in 10.0 mi NE 4.6 mph - N/A   Overcast
9:53 PM 46.0 °F 44.8 °F 34.0 °F 63% 30.12 in 10.0 mi ENE 3.5 mph - N/A   Overcast
10:53 PM 44.1 °F 40.1 °F 36.0 °F 73% 30.12 in 10.0 mi ENE 6.9 mph - N/A   Overcast
11:53 PM 44.1 °F 39.5 °F 35.1 °F 71% 30.12 in 10.0 mi ENE 8.1 mph - N/A   Overcast